Regional Weather Roundup
Issued by NWS

Home | Current Version | Previous Version | Text Only | Print | Product List | Glossary Off
Versions: 1 2 3 4 5 6 7 8 9 10 11 12 13 14 15 16 17 18 19 20 21 22 23 24 25 26 27 28 29 30 31 32 33 34 35 36 37 38 39 40 41 42 43 44 45 46 47 48 49 50

000
ASUS43 KLMK 050110
RWRKY
KENTUCKY REGIONAL WEATHER ROUNDUP
NATIONAL WEATHER SERVICE LOUISVILLE KY
900 PM EDT MON MAY 04 2015

NOTE "FAIR" INDICATES FEW OR NO CLOUDS BELOW 12,000 FEET
WITH NO SIGNIFICANT WEATHER AND/OR OBSTRUCTIONS TO VISIBILITY.

KYZ001>023-026-027-061>063-070>075-050200-
WESTERN AND SOUTH CENTRAL KENTUCKY

CITY           SKY/WX    TMP DP  RH WIND       PRES   REMARKS
PADUCAH        CLEAR     75  55  49 S7        30.12S
HENDERSON      CLEAR     73  54  49 S7        30.13R
OWENSBORO      CLEAR     74  60  61 S6        30.15S
HOPKINSVILLE   CLEAR     76  55  47 S7        30.17R
BOWLING GREEN  PTCLDY    75  55  49 S6        30.18S
GLASGOW        PTCLDY    72  54  53 CALM      30.19S
$$

KYZ024-025-028>034-038-045-046-053-050200-
NORTH CENTRAL KENTUCKY

CITY           SKY/WX    TMP DP  RH WIND       PRES   REMARKS
LOUISVILLE/SDF MOCLDY    78  56  46 SW6       30.16R
LOUISVILLE/LOU MOCLDY    78  55  44 S3        30.16S
FORT KNOX      PTCLDY    70  58  65 CALM      30.16R
$$

KYZ035>037-039>044-047>052-055>060-089>105-050200-
NORTHEAST KENTUCKY

CITY           SKY/WX    TMP DP  RH WIND       PRES   REMARKS
LEXINGTON      MOCLDY    72  55  55 SW6       30.20R
COVINGTON      MOCLDY    73  57  57 CALM      30.17S
FRANKFORT      MOCLDY    73  55  53 S6        30.17R
$$

KYZ054-064>069-076>088-106>120-050200-
SOUTHEAST KENTUCKY

CITY           SKY/WX    TMP DP  RH WIND       PRES   REMARKS
JACKSON        CLEAR     73  45  36 CALM      30.23R
LONDON         CLEAR     74  46  36 CALM      30.23R
SOMERSET       PTCLDY    70  50  49 CALM      30.23R
MIDDLESBORO    CLEAR     67  54  61 CALM      30.24R
MONTICELLO     CLEAR     66  55  67 CALM      30.25R
$$




USA.gov is the U.S. government's official web portal to all federal, state and local government web resources and services.